Date String (YYYY-MM-DD hh:mm:ss) UTC,Instrument flags,absolute air pressure of the measurement (hPa),sample flow rate (lpm),inlet stack bypass flow (lpm),air temperature of the measurement (°C),ambient temperature measured by the external sensor (°C),aerosol sample conditioner tube jacket temperature (°C),OPC LED temperature (°C),internal box temperature (°C),relative humidity of the measurement (%),span deviation,mass concentration of particles derived from Lorenz-Mie calculation of OPC scattering (μg/m³),mass concentration of particles derived from Lorenz-Mie calculation of OPC scattering (μg/m³),mass concentration of particles derived from Lorenz-Mie calculation of OPC scattering (μg/m³)
DateTimeUTC,F1_M11,P_M11,Q1_M11,Q2_M11,T1_M11,T2_M11,T3_M11,T4_M11,T5_M11,U1_M11,ZSPAN_M11,X2_M11,X0_M11,X1_M11
2024-03-02 15:00:00,SystemResetWarning,0818.7,5.01,000.00,021.2,020.6,000.0,029.4,022.9,11.5,0000.0,0001.57,0004.01,0000.92
2024-03-02 15:01:00,SystemResetWarning,0818.7,5.01,000.00,021.2,020.6,000.0,029.4,023.0,11.7,0000.0,0001.58,0002.95,0000.97
2024-03-02 15:02:00,SystemResetWarning,0818.6,4.99,000.00,021.2,020.6,000.0,029.5,023.0,11.5,0000.0,0001.64,0003.00,0001.02
2024-03-02 15:03:00,SystemResetWarning,0818.6,4.99,000.00,021.2,020.6,000.0,029.5,023.0,11.3,0000.0,0001.78,0003.21,0001.07
2024-03-02 15:04:00,SystemResetWarning,0818.6,5.00,000.00,021.2,020.6,000.0,029.5,023.0,10.9,0000.0,0001.87,0003.45,0001.09
2024-03-02 15:05:00,SystemResetWarning,0818.6,4.99,000.00,021.2,020.6,000.0,029.5,023.0,10.6,0000.0,0001.93,0003.81,0001.11
2024-03-02 15:06:00,SystemResetWarning,0818.6,5.00,000.00,021.2,020.6,000.0,029.5,023.0,10.7,0000.0,0001.98,0004.16,0001.12
2024-03-02 15:07:00,SystemResetWarning,0818.6,5.01,000.00,021.3,020.6,000.0,029.5,023.0,10.5,0000.0,0001.97,0004.15,0001.14
2024-03-02 15:08:00,SystemResetWarning,0818.7,5.01,000.00,021.3,020.6,000.0,029.5,023.0,10.6,0000.0,0001.94,0004.01,0001.16
2024-03-02 15:09:00,SystemResetWarning,0818.6,4.99,000.00,021.3,020.6,000.0,029.6,023.1,10.9,0000.0,0002.00,0004.12,0001.17
2024-03-02 15:10:00,SystemResetWarning,0818.7,4.99,000.00,021.3,020.6,000.0,029.6,023.1,10.9,0000.0,0002.09,0004.27,0001.21
2024-03-02 15:11:00,SystemResetWarning,0818.7,5.00,000.00,021.3,020.6,000.0,029.6,023.1,11.3,0000.0,0002.16,0004.49,0001.24
2024-03-02 15:12:00,SystemResetWarning,0818.7,5.00,000.00,021.3,020.6,000.0,029.6,023.0,11.5,0000.0,0002.21,0004.97,0001.25
2024-03-02 15:13:00,SystemResetWarning,0818.7,5.00,000.00,021.3,020.6,000.0,029.6,023.0,11.5,0000.0,0002.22,0005.32,0001.26
2024-03-02 15:14:00,SystemResetWarning,0818.7,5.01,000.00,021.3,020.7,000.0,029.6,023.0,11.3,0000.0,0002.19,0005.24,0001.27
2024-03-02 15:15:00,SystemResetWarning,0818.7,5.00,000.00,021.3,020.7,000.0,029.6,023.0,11.1,0000.0,0002.24,0005.80,0001.30
2024-03-02 15:16:00,SystemResetWarning,0818.6,5.00,000.00,021.3,020.7,000.0,029.6,023.1,11.4,0000.0,0002.26,0006.30,0001.34
2024-03-02 15:17:00,SystemResetWarning,0818.6,4.99,000.00,021.3,020.7,000.0,029.6,023.1,11.0,0000.0,0002.33,0006.19,0001.39
2024-03-02 15:18:00,SystemResetWarning,0818.7,4.99,000.00,021.3,020.7,000.0,029.6,023.1,10.7,0000.0,0002.39,0006.34,0001.43
2024-03-02 15:19:00,SystemResetWarning,0818.6,5.00,000.00,021.4,020.7,000.0,029.6,023.1,11.0,0000.0,0002.44,0006.67,0001.47
2024-03-02 15:20:00,SystemResetWarning,0818.6,5.00,000.00,021.4,020.7,000.0,029.6,023.1,10.3,0000.0,0002.46,0007.11,0001.51
2024-03-02 15:21:00,SystemResetWarning,0818.7,5.00,000.00,021.4,020.7,000.0,029.6,023.1,11.0,0000.0,0002.53,0007.33,0001.52
2024-03-02 15:22:00,SystemResetWarning,0818.6,5.00,000.00,021.4,020.7,000.0,029.7,023.1,10.5,0000.0,0002.58,0007.45,0001.53
2024-03-02 15:23:00,SystemResetWarning,0818.6,5.01,000.00,021.4,020.7,000.0,029.7,023.1,10.7,0000.0,0002.55,0007.20,0001.51
2024-03-02 15:24:00,SystemResetWarning,0818.6,5.01,000.00,021.4,020.7,000.0,029.7,023.2,10.3,0000.0,0002.49,0006.93,0001.48
2024-03-02 15:25:00,SystemResetWarning,0818.6,5.00,000.00,021.4,020.7,000.0,029.7,023.2,09.8,0000.0,0002.45,0007.55,0001.46
2024-03-02 15:26:00,SystemResetWarning,0818.6,5.00,000.00,021.4,020.8,000.0,029.7,023.2,11.0,0000.0,0002.45,0007.58,0001.46
2024-03-02 15:27:00,SystemResetWarning,0818.6,5.00,000.00,021.4,020.8,000.0,029.7,023.2,13.0,0000.0,0002.44,0006.73,0001.44
2024-03-02 15:28:00,SystemResetWarning,0818.6,4.99,000.00,021.4,020.8,000.0,029.7,023.2,13.4,0000.0,0002.40,0007.01,0001.41
2024-03-02 15:29:00,SystemResetWarning,0818.6,4.99,000.00,021.4,020.8,000.0,029.7,023.2,12.9,0000.0,0002.34,0006.92,0001.39
2024-03-02 15:30:00,SystemResetWarning,0818.6,5.00,000.00,021.4,020.8,000.0,029.7,023.1,12.7,0000.0,0002.30,0006.78,0001.36
2024-03-02 15:31:00,SystemResetWarning,0818.7,5.01,000.00,021.4,020.8,000.0,029.7,023.2,12.6,0000.0,0002.27,0006.12,0001.33
2024-03-02 15:32:00,SystemResetWarning,0818.7,5.00,000.00,021.4,020.8,000.0,029.7,023.2,12.4,0000.0,0002.17,0005.79,0001.31
2024-03-02 15:33:00,SystemResetWarning,0818.7,5.00,000.00,021.5,020.8,000.0,029.7,023.2,12.7,0000.0,0002.06,0005.39,0001.29
2024-03-02 15:34:00,SystemResetWarning,0818.7,5.00,000.00,021.5,020.8,000.0,029.7,023.2,12.3,0000.0,0002.02,0005.31,0001.28
2024-03-02 15:35:00,SystemResetWarning,0818.7,5.00,000.00,021.5,020.8,000.0,029.7,023.2,12.3,0000.0,0001.99,0005.09,0001.26
2024-03-02 15:36:00,SystemResetWarning,0818.7,5.00,000.00,021.5,020.8,000.0,029.7,023.1,12.1,0000.0,0001.95,0003.90,0001.24
2024-03-02 15:37:00,SystemResetWarning,0818.7,4.99,000.00,021.5,020.8,000.0,029.7,023.2,12.1,0000.0,0001.94,0003.83,0001.21
2024-03-02 15:38:00,SystemResetWarning,0818.7,5.00,000.00,021.5,020.8,000.0,029.7,023.2,11.8,0000.0,0001.90,0003.64,0001.19
2024-03-02 15:39:00,SystemResetWarning,0818.7,5.00,000.00,021.5,020.8,000.0,029.7,023.2,11.2,0000.0,0001.86,0003.16,0001.17
2024-03-02 15:40:00,SystemResetWarning,0818.7,5.00,000.00,021.5,020.8,000.0,029.7,023.1,11.2,0000.0,0001.85,0003.10,0001.13
2024-03-02 15:41:00,SystemResetWarning,0818.7,5.01,000.00,021.5,020.8,000.0,029.7,023.1,10.9,0000.0,0001.82,0003.09,0001.12
2024-03-02 15:42:00,SystemResetWarning,0818.7,5.00,000.00,021.5,020.8,000.0,029.7,023.2,10.9,0000.0,0001.80,0003.06,0001.10
2024-03-02 15:43:00,SystemResetWarning,0818.7,4.99,000.00,021.5,020.8,000.0,029.7,023.2,10.9,0000.0,0001.83,0003.58,0001.09
2024-03-02 15:44:00,SystemResetWarning,0818.6,4.99,000.00,021.5,020.8,000.0,029.7,023.2,11.1,0000.0,0001.87,0004.55,0001.09
2024-03-02 15:45:00,SystemResetWarning,0818.6,5.00,000.00,021.5,020.8,000.0,029.7,023.2,11.1,0000.0,0001.86,0004.56,0001.08
2024-03-02 15:46:00,SystemResetWarning,0818.6,5.01,000.00,021.5,020.8,000.0,029.7,023.2,11.3,0000.0,0001.92,0004.74,0001.09
2024-03-02 15:47:00,SystemResetWarning,0818.6,5.00,000.00,021.5,020.8,000.0,029.7,023.2,11.1,0000.0,0001.95,0004.86,0001.10
2024-03-02 15:48:00,SystemResetWarning,0818.6,5.00,000.00,021.5,020.9,000.0,029.7,023.2,10.9,0000.0,0001.92,0004.94,0001.10
2024-03-02 15:49:00,SystemResetWarning,0818.6,5.00,000.00,021.5,020.9,000.0,029.7,023.2,10.8,0000.0,0001.90,0005.22,0001.11
2024-03-02 15:50:00,SystemResetWarning,0818.6,5.00,000.00,021.5,020.9,000.0,029.8,023.2,11.0,0000.0,0001.87,0005.12,0001.11
2024-03-02 15:51:00,SystemResetWarning,0818.6,5.00,000.00,021.6,020.9,000.0,029.8,023.3,11.3,0000.0,0001.88,0005.18,0001.13
2024-03-02 15:52:00,SystemResetWarning,0818.7,4.99,000.00,021.6,020.9,000.0,029.8,023.3,11.3,0000.0,0001.89,0006.36,0001.13
2024-03-02 15:53:00,SystemResetWarning,0818.6,4.99,000.00,021.6,020.9,000.0,029.8,023.2,11.3,0000.0,0001.93,0006.67,0001.13
2024-03-02 15:54:00,SystemResetWarning,0818.6,5.00,000.00,021.6,020.9,000.0,029.8,023.3,11.3,0000.0,0001.87,0006.52,0001.13
2024-03-02 15:55:00,SystemResetWarning,0818.6,5.00,000.00,021.6,020.9,000.0,029.8,023.3,11.1,0000.0,0001.82,0007.39,0001.14
2024-03-02 15:56:00,SystemResetWarning,0818.6,5.00,000.00,021.6,021.0,000.0,029.8,023.3,11.1,0000.0,0001.86,0007.45,0001.14
2024-03-02 15:57:00,SystemResetWarning,0818.6,4.99,000.00,021.6,021.0,000.0,029.8,023.3,11.1,0000.0,0001.91,0007.55,0001.13
2024-03-02 15:58:00,SystemResetWarning,0818.6,5.00,000.00,021.6,021.0,000.0,029.8,023.3,11.3,0000.0,0001.93,0007.69,0001.14
2024-03-02 15:59:00,SystemResetWarning,0818.6,5.01,000.00,021.6,021.0,000.0,029.8,023.3,11.3,0000.0,0001.91,0007.93,0001.13
